Stations météo

réclame
Mon MeteoGroup
Northolt, Grande-Bretagne (3672): Température de l'air & dewpoint: 07.12.2017 03:00:00 - 13.12.2017 03:00:00 (GMT)Northolt, Grande-Bretagne (3672): Température de l'air -20cm & Température de l'air -100cm: 07.12.2017 03:00:00 - 13.12.2017 03:00:00 (GMT)Northolt, Grande-Bretagne (3672): Vitesse du vent & gusts: 07.12.2017 03:00:00 - 13.12.2017 03:00:00 (GMT)Northolt, Grande-Bretagne (3672): Direction du vent: 07.12.2017 03:00:00 - 13.12.2017 03:00:00 (GMT)Northolt, Grande-Bretagne (3672): reduced air pressure: 07.12.2017 03:00:00 - 13.12.2017 03:00:00 (GMT)Northolt, Grande-Bretagne (3672): visibility: 07.12.2017 03:00:00 - 13.12.2017 03:00:00 (GMT)Northolt, Grande-Bretagne (3672): Quantités de précipitations: 07.12.2017 03:00:00 - 13.12.2017 03:00:00 (GMT)
Date & Time tt [°C] td [°C] tt -20cm [°C] tt -100cm [°C] ff [km/h] ff [knt] fx [km/h] fx [knt] dd ppp [hPa] vv [km] rr [mm]
13.12.2017 03:00:00 - - - - - - - - - - - -
13.12.2017 02:00:00 7,3 6,8 - - 21 11 - - SSW 1001,8 3,2 1,2
13.12.2017 01:00:00 6,3 5,8 - - 15 8 - - SSW 1003,2 2,9 0,4
13.12.2017 00:00:00 5,8 4,8 - - 15 8 - - S 1004,5 2,4 0,4
12.12.2017 23:00:00 5,3 4,3 - - 11 6 - - S 1005,9 3,0 0,6
12.12.2017 22:00:00 4,5 3,0 - - 13 7 - - S 1006,6 6 0,4
12.12.2017 21:00:00 4,0 1,4 - - 8 4 - - S 1007,9 10 0,0
12.12.2017 20:00:00 3,4 1,0 - - 8 4 - - S 1008,7 10 0,0
12.12.2017 19:00:00 3,3 0,4 - - 8 4 - - S 1009,0 10 0,0
12.12.2017 18:00:00 2,6 -0,2 - - 8 4 - - S 1009,5 10 0,0
12.12.2017 17:00:00 2,7 -0,4 - - 8 4 - - SSW 1009,8 10 0,0
12.12.2017 16:00:00 2,9 -0,1 - - 11 6 - - SSW 1010,1 10 0,0
12.12.2017 15:00:00 3,6 -0,2 - - 13 7 - - SW 1009,9 10 0,0
12.12.2017 14:00:00 3,8 0,0 - - 5 3 - - SW 1009,5 10 0,0
12.12.2017 13:00:00 3,5 -0,1 - - 9 5 - - W 1009,8 10 0,0
12.12.2017 12:00:00 2,7 -0,8 - - 9 5 - - W 1009,8 10 0,0
12.12.2017 11:00:00 1,1 -1,5 - - 9 5 - - W 1010,1 8 0,0
12.12.2017 10:00:00 -0,4 -2,3 - - 5 3 - - S 1009,4 7 0,0
12.12.2017 09:00:00 -2,4 -3,1 5,5 9,5 9 5 - - WSW 1009,1 6 0,0
12.12.2017 08:00:00 -3,1 -3,8 - - 8 4 - - W 1008,2 6 0,0
12.12.2017 07:00:00 -3,7 -4,3 - - 4 2 - - SW 1006,6 6 0,0
12.12.2017 06:00:00 -3,6 -4,6 - - 2 1 - - SW 1005,8 6 0,0
12.12.2017 05:00:00 -3,1 -4,2 - - 4 2 - - W 1005,3 8 0,0
12.12.2017 04:00:00 -2,6 -3,8 - - 11 6 - - WNW 1004,2 11 0,0
12.12.2017 03:00:00 -2,6 -4,0 - - 8 4 - - WNW 1003,0 13 0,0
12.12.2017 02:00:00 -2,6 -4,3 - - 8 4 - - NW 1001,7 10 0,0
12.12.2017 01:00:00 -2,0 -3,7 - - 13 7 - - WNW 1000,1 10 0,0
12.12.2017 00:00:00 -1,3 -3,5 - - 13 7 - - NW 999,2 18 0,0
11.12.2017 23:00:00 -1,1 -3,8 - - 15 8 - - NW 998,3 28 0,0
11.12.2017 22:00:00 -0,8 -4,1 - - 13 7 - - WNW 997,3 10 0,0
11.12.2017 21:00:00 0,3 -3,4 - - 16 9 - - NW 995,9 10 0,0
11.12.2017 20:00:00 0,4 -2,5 - - 18 10 - - NNW 994,2 10 0,0
11.12.2017 19:00:00 1,1 -1,5 - - 18 10 - - NNW 992,4 10 0,0
11.12.2017 18:00:00 1,5 -1,3 - - 22 12 - - NNW 990,8 10 0,0
11.12.2017 17:00:00 2,0 -1,5 - - 24 13 - - NNW 989,1 10 0,0
11.12.2017 16:00:00 2,5 -1,2 - - 24 13 46 25 N 987,4 10 0,0
11.12.2017 15:00:00 3,1 -0,4 - - 26 14 - - N 985,8 10 0,0
11.12.2017 14:00:00 2,9 0,2 - - 26 14 - - N 984,5 10 0,2
11.12.2017 13:00:00 1,9 0,9 - - 22 12 - - N 983,6 10 1,2
11.12.2017 12:00:00 1,9 0,8 - - 26 14 46 25 NNE 982,6 6 1,4
11.12.2017 11:00:00 2,1 0,9 - - 28 15 - - NNE 981,9 6 1,2
11.12.2017 10:00:00 2,3 1,1 - - 29 16 46 25 NNE 980,9 7 1,2
11.12.2017 09:00:00 2,3 1,0 6,0 9,7 29 16 46 25 NE 980,4 7 1,0
11.12.2017 08:00:00 2,3 0,9 - - 28 15 - - NE 979,8 7 0,4
11.12.2017 07:00:00 1,7 0,6 - - 26 14 - - NE 979,3 8 1,2
11.12.2017 06:00:00 1,9 0,5 - - 21 11 - - NE 979,0 9 0,0
11.12.2017 05:00:00 1,1 0,5 - - 18 10 - - NE 978,8 10 0,0
11.12.2017 04:00:00 0,7 0,4 - - 16 9 - - ENE 979,7 7 0,0
11.12.2017 03:00:00 0,6 0,4 - - 18 10 - - ENE 981,3 4,5 0,0
11.12.2017 02:00:00 0,7 0,5 - - 13 7 - - ENE 981,8 2,9 0,0
11.12.2017 01:00:00 0,8 0,6 - - 13 7 - - ENE 981,2 1,4 0,0
11.12.2017 00:00:00 0,9 0,5 - - 11 6 - - E 981,9 5 0,0
10.12.2017 23:00:00 1,0 0,5 - - 15 8 - - ENE 981,1 5 0,0
10.12.2017 22:00:00 1,1 0,5 - - 15 8 - - ENE 981,1 8 0,0
10.12.2017 21:00:00 1,1 0,6 - - 8 4 - - E 980,8 9 0,0
10.12.2017 20:00:00 1,0 0,6 - - 5 3 - - ENE 980,4 9 0,2
10.12.2017 19:00:00 0,7 0,4 - - 5 3 - - WSW 980,0 2,8 0,0
10.12.2017 18:00:00 0,8 0,4 - - 8 4 - - W 979,5 5 0,2
10.12.2017 17:00:00 1,1 0,4 - - 9 5 - - W 978,8 7 0,2
10.12.2017 16:00:00 0,9 0,2 - - 9 5 - - NW 978,0 10 0,8
10.12.2017 15:00:00 0,8 0,3 - - 13 7 - - NW 976,9 10 1,2
10.12.2017 14:00:00 0,4 0,3 - - 13 7 - - WNW 975,8 2,5 0,0
10.12.2017 13:00:00 0,5 0,2 - - 11 6 - - NNW 973,8 2,2 0,0
10.12.2017 12:00:00 0,7 0,1 - - 13 7 - - ENE 971,9 3,8 0,0
10.12.2017 11:00:00 0,7 0,1 - - 9 5 - - ENE 973,1 2,5 0,0
10.12.2017 10:00:00 0,5 0,4 - - 11 6 - - E 973,6 4,0 0,0
10.12.2017 09:00:00 0,4 0,2 6,5 9,9 16 9 - - ENE 974,7 1,5 0,0
10.12.2017 08:00:00 0,8 0,3 - - 21 11 - - E 976,7 1,8 0,0
10.12.2017 07:00:00 1,4 0,9 - - 21 11 - - ESE 981,0 2,5 4,0
10.12.2017 06:00:00 2,3 1,8 - - 18 10 - - ESE 984,9 2,7 2,8
10.12.2017 05:00:00 2,2 1,6 - - 18 10 - - ESE 988,8 4,0 1,6
10.12.2017 04:00:00 1,8 0,3 - - 16 9 - - ESE 992,1 7 0,4
10.12.2017 03:00:00 2,0 -1,5 - - 15 8 - - ESE 995,5 10 0,0
10.12.2017 02:00:00 1,1 -1,4 - - 8 4 - - ESE 998,3 10 0,0
10.12.2017 01:00:00 0,4 -1,4 - - 4 2 - - ESE 1001,0 10 0,0
10.12.2017 00:00:00 0,1 -1,6 - - 5 3 - - SSE 1003,4 14 0,0
09.12.2017 23:00:00 0,3 -1,8 - - 5 3 - - SSE 1005,1 10 0,0
09.12.2017 22:00:00 1,3 -1,7 - - 4 2 - - SSE 1006,7 10 0,0
09.12.2017 21:00:00 2,0 -1,2 - - 8 4 - - WSW 1008,3 10 0,0
09.12.2017 20:00:00 2,1 -1,1 - - 5 3 - - WSW 1009,4 10 0,0
09.12.2017 19:00:00 1,7 -1,0 - - 5 3 - - SW 1010,5 10 0,0
09.12.2017 18:00:00 1,1 -1,1 - - 8 4 - - WSW 1011,5 10 0,0
09.12.2017 17:00:00 1,5 -1,1 - - 11 6 - - WSW 1012,1 10 0,0
09.12.2017 16:00:00 2,5 -1,1 - - 13 7 - - W 1012,7 10 0,0
09.12.2017 15:00:00 3,3 -0,9 - - 15 8 - - W 1013,3 10 0,0
09.12.2017 14:00:00 3,7 -0,9 - - 13 7 - - W 1014,3 10 0,0
09.12.2017 13:00:00 3,5 -1,2 - - 18 10 - - W 1015,7 10 0,0
09.12.2017 12:00:00 3,2 -1,5 - - 16 9 - - WNW 1016,6 10 0,0
09.12.2017 11:00:00 2,4 -1,4 - - 16 9 - - W 1017,4 10 0,0
09.12.2017 10:00:00 0,4 -2,1 - - 11 6 - - W 1018,2 10 0,0
09.12.2017 09:00:00 -0,8 -2,5 7,2 10,0 9 5 - - W 1018,4 10 0,0
09.12.2017 08:00:00 -1,4 -3,0 - - 8 4 - - W 1018,4 10 0,0
09.12.2017 07:00:00 -1,4 -2,9 - - 9 5 - - W 1018,5 10 0,0
09.12.2017 06:00:00 -1,1 -2,7 - - 16 9 - - W 1018,4 10 0,0
09.12.2017 05:00:00 -0,6 -2,4 - - 18 10 - - W 1018,6 10 0,0
09.12.2017 04:00:00 -0,7 -2,7 - - 13 7 - - WNW 1018,7 10 0,0
09.12.2017 03:00:00 -0,6 -2,7 - - 16 9 - - WNW 1018,9 10 0,0
09.12.2017 02:00:00 -0,2 -2,6 - - 16 9 - - WNW 1019,0 10 0,0
09.12.2017 01:00:00 -0,4 -2,8 - - 15 8 - - W 1019,2 45 0,0
09.12.2017 00:00:00 0,0 -2,4 - - 18 10 - - WNW 1019,0 30 0,0
08.12.2017 23:00:00 0,6 -2,1 - - 24 13 - - WNW 1018,7 30 0,0
08.12.2017 22:00:00 0,6 -2,2 - - 21 11 - - WNW 1018,8 10 0,0
08.12.2017 21:00:00 1,1 -2,1 - - 24 13 - - NW 1018,6 10 0,0
08.12.2017 20:00:00 0,5 -1,8 - - 15 8 - - WNW 1018,5 10 0,0
08.12.2017 19:00:00 0,9 -1,6 - - 16 9 - - W 1018,7 10 0,0
08.12.2017 18:00:00 1,3 -2,2 - - 24 13 - - WNW 1017,9 10 0,0
08.12.2017 17:00:00 1,8 -2,4 - - 24 13 - - WNW 1017,7 10 0,0
08.12.2017 16:00:00 2,3 -2,4 - - 29 16 48 26 WNW 1017,2 10 0,0
08.12.2017 15:00:00 3,4 -2,7 - - 24 13 52 28 WNW 1017,0 10 0,0
08.12.2017 14:00:00 3,8 -2,1 - - 31 17 52 28 NW 1016,8 10 0,0
08.12.2017 13:00:00 4,0 -2,1 - - 37 20 50 27 NW 1016,2 10 0,0
08.12.2017 12:00:00 3,5 -1,7 - - 34 18 52 28 WNW 1016,1 10 0,0
08.12.2017 11:00:00 3,4 -0,6 - - 31 17 - - W 1016,1 10 0,0
08.12.2017 10:00:00 2,7 -1,2 - - 21 11 - - WNW 1015,9 10 0,0
08.12.2017 09:00:00 2,2 -1,3 8,2 10,0 21 11 - - WNW 1015,3 10 0,0
08.12.2017 08:00:00 2,2 -1,4 - - 16 9 - - WNW 1014,2 10 0,0
08.12.2017 07:00:00 2,8 -1,1 - - 21 11 - - WNW 1013,3 10 0,0
08.12.2017 06:00:00 3,2 -1,4 - - 22 12 46 25 WNW 1012,6 10 0,0
08.12.2017 05:00:00 3,0 -1,9 - - 29 16 - - W 1011,7 10 0,0
08.12.2017 04:00:00 3,0 -2,1 - - 26 14 - - W 1011,9 10 0,0
08.12.2017 03:00:00 3,3 -1,4 - - 22 12 - - W 1012,2 10 0,0
08.12.2017 02:00:00 2,6 -0,2 - - 15 8 - - W 1012,6 10 0,0
08.12.2017 01:00:00 3,3 0,0 - - 18 10 - - W 1012,5 10 0,0
08.12.2017 00:00:00 3,5 0,0 - - 16 9 - - WSW 1012,7 10 0,0
07.12.2017 23:00:00 4,2 0,0 - - 22 12 - - W 1012,7 10 0,0
07.12.2017 22:00:00 5,0 0,4 - - 22 12 - - W 1012,7 10 0,0
07.12.2017 21:00:00 5,4 0,7 - - 21 11 - - W 1012,5 10 0,0
07.12.2017 20:00:00 5,9 0,5 - - 22 12 - - W 1012,1 10 0,0
07.12.2017 19:00:00 6,5 1,2 - - 26 14 - - W 1011,3 10 0,0
07.12.2017 18:00:00 7,4 1,6 - - 21 11 - - W 1010,6 10 0,0
07.12.2017 17:00:00 7,7 2,6 - - 13 7 - - W 1010,1 10 0,0
07.12.2017 16:00:00 7,8 2,0 - - 21 11 - - WNW 1009,4 10 0,0
07.12.2017 15:00:00 8,2 2,8 - - 16 9 - - WNW 1008,0 10 0,0
07.12.2017 14:00:00 9,0 3,4 - - 26 14 - - NW 1007,7 10 0,0
07.12.2017 13:00:00 8,8 4,9 - - 28 15 59 32 NNW 1006,9 10 2,0
07.12.2017 12:00:00 12,1 11,6 - - 18 10 - - SW 1005,0 2,5 0,4
07.12.2017 11:00:00 11,4 10,7 - - 24 13 - - SSW 1005,6 4,0 1,0
07.12.2017 10:00:00 11,4 10,6 - - 28 15 - - SSW 1006,0 5 0,2
07.12.2017 09:00:00 11,5 10,2 8,2 10,0 28 15 46 25 SW 1006,8 5 0,0
07.12.2017 08:00:00 10,7 9,5 - - 24 13 46 25 SSW 1007,7 8 0,0
07.12.2017 07:00:00 10,8 9,3 - - 26 14 46 25 SSW 1008,6 7 0,0
07.12.2017 06:00:00 10,6 8,9 - - 28 15 48 26 SSW 1009,4 10 0,0
07.12.2017 05:00:00 10,2 8,4 - - 26 14 - - SW 1010,8 10 0,0
07.12.2017 04:00:00 9,9 8,4 - - 26 14 - - SSW 1012,1 10 0,0
07.12.2017 03:00:00 9,7 7,7 - - 26 14 - - SSW 1013,6 10 0,0

tt = Température de l'air
td = dewpoint
tt -20cm = Température de l'air -20cm
tt -100cm = Température de l'air -100cm
ff = Vitesse du vent
fx = gusts
dd = Direction du vent
ppp = reduced air pressure
vv = visibility
rr = Quantités de précipitations

stations d'obs. à proximité